Weather History for Murray, KY

Change the Weather History Date:

Tuesday, April 16, 2013

  Actual Average (KPAH) Record (KPAH)
Temperature  
Mean Temperature 70 °F 58 °F  
Max Temperature 77 °F 70 °F 87 °F (1977)
Min Temperature 64 °F 47 °F 27 °F (1962)
Degree Days  
Heating Degree Days 0 8  
Month to date heating degree days 161  
Since 1 July heating degree days 3980  
Cooling Degree Days 6 1  
Month to date cooling degree days 16  
Year to date cooling degree days 23  
Growing Degree Days 20 (Base 50)    
Moisture  
Dew Point 65 °F    
Average Humidity 83    
Maximum Humidity 100    
Minimum Humidity 73    
Precipitation  
Precipitation 0.00 in 0.17 in 3.34 in (1939)
Month to date precipitation 2.35  
Year to date precipitation 13.87  
Snow  
Snow 0.00 in 0.00 in - ()
Month to date snowfall 0.0  
Since 1 July snowfall 9.1  
Snow Depth -    
Sea Level Pressure  
Sea Level Pressure 30.03 in    
Wind  
Wind Speed 9 mph (South)    
Max Wind Speed 14 mph    
Max Gust Speed 22 mph    
Visibility 10 miles    
Events      
T = Trace of Precipitation, MM = Missing Value Source: NWS Daily Summary

Daily Weather History Graph

Daily Weather History Graph

Search for Another Location

Airport:

Trip Planner

Search our weather history database for the weather conditions in past years. The results will help you decide how hot, cold, wet, or windy it might be!

Date:

Astronomy

Apr. 16, 2013 Rise Set
Actual Time 6:17 AM CDT 7:29 PM CDT
Civil Twilight 5:51 AM CDT 7:55 PM CDT
Nautical Twilight 5:19 AM CDT 8:27 PM CDT
Astronomical Twilight 4:46 AM CDT 9:01 PM CDT
Moon 10:40 AM CDT (4/16) 12:21 AM CDT (4/16)
Length of Visible Light 14h 04m
Length of Day
13h 11m
Waxing Crescent, 33% of the Moon is Illuminated
Apr 16
Waxing Crescent
Apr 18
First Quarter
Apr 25
Full
May 2
Last Quarter
May 9
New

Hourly Weather History & Observations

Time (CDT) Temp. Dew Point Humidity Pressure Visibility Wind Dir Wind Speed Gust Speed Precip Events Conditions
12:15 AM 68.0 °F 59.0 °F 73% 29.94 in 10.0 mi South 10.4 mph 17.3 mph N/A   Clear
12:35 AM 68.0 °F 59.0 °F 73% 29.93 in 10.0 mi South 11.5 mph 17.3 mph N/A   Clear
12:55 AM 66.2 °F 59.0 °F 78% 29.93 in 10.0 mi South 8.1 mph - N/A   Clear
1:15 AM 66.2 °F 59.0 °F 78% 29.94 in 10.0 mi South 9.2 mph - N/A   Clear
1:35 AM 66.2 °F 59.0 °F 78% 29.93 in 10.0 mi South 12.7 mph 16.1 mph N/A   Clear
1:55 AM 66.2 °F 59.0 °F 78% 29.93 in 10.0 mi South 10.4 mph 16.1 mph N/A   Clear
2:15 AM 66.2 °F 59.0 °F 78% 29.93 in 10.0 mi South 11.5 mph 17.3 mph N/A   Clear
2:35 AM 66.2 °F 59.0 °F 78% 29.94 in 10.0 mi South 9.2 mph - N/A   Clear
2:55 AM 64.4 °F 59.0 °F 83% 29.95 in 10.0 mi South 8.1 mph - N/A   Clear
3:15 AM 64.4 °F 59.0 °F 83% 29.95 in 10.0 mi South 9.2 mph - N/A   Mostly Cloudy
3:35 AM 64.4 °F 59.0 °F 83% 29.95 in 10.0 mi South 9.2 mph - N/A   Mostly Cloudy
3:55 AM 64.4 °F 59.0 °F 83% 29.96 in 10.0 mi South 8.1 mph - N/A   Mostly Cloudy
4:15 AM 66.2 °F 60.8 °F 83% 29.97 in 10.0 mi South 8.1 mph - N/A   Overcast
4:35 AM 66.2 °F 60.8 °F 83% 29.98 in 10.0 mi South 9.2 mph - N/A   Overcast
4:55 AM 66.2 °F 62.6 °F 88% 29.99 in 10.0 mi South 9.2 mph 18.4 mph N/A   Overcast
5:15 AM 66.2 °F 62.6 °F 88% 30.00 in 10.0 mi South 10.4 mph 16.1 mph N/A   Overcast
5:35 AM 66.2 °F 62.6 °F 88% 30.01 in 10.0 mi South 10.4 mph 20.7 mph N/A   Overcast
5:55 AM 66.2 °F 62.6 °F 88% 30.03 in 10.0 mi SSW 9.2 mph 16.1 mph N/A   Overcast
6:15 AM 66.2 °F 62.6 °F 88% 30.03 in 10.0 mi South 8.1 mph - N/A   Overcast
6:35 AM 66.2 °F 64.4 °F 94% 30.05 in 9.0 mi South 5.8 mph - N/A   Overcast
7:15 AM 66.2 °F 64.4 °F 94% 30.07 in 6.0 mi South 4.6 mph - N/A   Overcast
7:35 AM 64.4 °F 64.4 °F 100% 30.07 in 2.0 mi South 5.8 mph - N/A   Overcast
7:55 AM 64.4 °F 64.4 °F 100% 30.08 in 1.5 mi SSE 4.6 mph - N/A   Overcast
8:15 AM 66.2 °F 66.2 °F 100% 30.07 in 3.0 mi SSE 4.6 mph - N/A   Overcast
8:35 AM 66.2 °F 66.2 °F 100% 30.07 in 5.0 mi SSE 5.8 mph - N/A   Overcast
8:55 AM 66.2 °F 66.2 °F 100% 30.07 in 8.0 mi South 6.9 mph - N/A   Overcast
9:15 AM 66.2 °F 66.2 °F 100% 30.08 in 9.0 mi SSE 8.1 mph - N/A   Overcast
9:35 AM 68.0 °F 66.2 °F 94% 30.07 in 10.0 mi South 10.4 mph - N/A   Overcast
9:55 AM 68.0 °F 66.2 °F 94% 30.07 in 10.0 mi South 11.5 mph 17.3 mph N/A   Overcast
10:15 AM 69.8 °F 66.2 °F 88% 30.07 in 10.0 mi South 10.4 mph 16.1 mph N/A   Overcast
10:35 AM 71.6 °F 68.0 °F 88% 30.07 in 10.0 mi South 12.7 mph 18.4 mph N/A   Overcast
10:55 AM 71.6 °F 66.2 °F 83% 30.08 in 10.0 mi South 11.5 mph 18.4 mph N/A   Overcast
11:15 AM 71.6 °F 66.2 °F 83% 30.08 in 10.0 mi South 9.2 mph - N/A   Overcast
11:35 AM 73.4 °F 68.0 °F 83% 30.08 in 10.0 mi South 12.7 mph 18.4 mph N/A   Overcast
11:55 AM 73.4 °F 68.0 °F 83% 30.07 in 10.0 mi South 10.4 mph 18.4 mph N/A   Overcast
12:15 PM 73.4 °F 68.0 °F 83% 30.07 in 10.0 mi South 11.5 mph 20.7 mph N/A   Overcast
12:35 PM 73.4 °F 68.0 °F 83% 30.07 in 10.0 mi South 12.7 mph 21.9 mph N/A   Overcast
12:55 PM 75.2 °F 68.0 °F 78% 30.06 in 10.0 mi South 11.5 mph 20.7 mph N/A   Overcast
1:15 PM 75.2 °F 68.0 °F 78% 30.06 in 10.0 mi South 10.4 mph 18.4 mph N/A   Overcast
1:35 PM 75.2 °F 68.0 °F 78% 30.06 in 10.0 mi SSE 11.5 mph 19.6 mph N/A   Overcast
1:55 PM 77.0 °F 68.0 °F 74% 30.05 in 10.0 mi South 13.8 mph 20.7 mph N/A   Mostly Cloudy
2:15 PM 77.0 °F 68.0 °F 74% 30.05 in 10.0 mi South 12.7 mph 20.7 mph N/A   Mostly Cloudy
2:35 PM 75.2 °F 68.0 °F 78% 30.04 in 10.0 mi South 13.8 mph 21.9 mph N/A   Mostly Cloudy
2:55 PM 77.0 °F 68.0 °F 74% 30.03 in 10.0 mi South 8.1 mph 16.1 mph N/A   Partly Cloudy
3:15 PM 77.0 °F 68.0 °F 74% 30.03 in 10.0 mi South 10.4 mph 16.1 mph N/A   Mostly Cloudy
3:35 PM 77.0 °F 68.0 °F 74% 30.04 in 10.0 mi South 8.1 mph - N/A   Scattered Clouds
3:55 PM 75.2 °F 68.0 °F 78% 30.03 in 10.0 mi South 8.1 mph - N/A   Partly Cloudy
4:15 PM 75.2 °F 68.0 °F 78% 30.03 in 10.0 mi SSE 4.6 mph - N/A   Clear
4:35 PM 77.0 °F 68.0 °F 74% 30.02 in 10.0 mi SSE 6.9 mph - N/A   Clear
4:55 PM 77.0 °F 68.0 °F 74% 30.02 in 10.0 mi SSE 6.9 mph 16.1 mph N/A   Clear
5:15 PM 75.2 °F 68.0 °F 78% 30.02 in 10.0 mi South 9.2 mph - N/A   Clear
5:35 PM 75.2 °F 68.0 °F 78% 30.01 in 10.0 mi SSE 3.5 mph - N/A   Clear
5:55 PM 77.0 °F 68.0 °F 74% 30.03 in 10.0 mi SE 3.5 mph - N/A   Partly Cloudy
6:15 PM 77.0 °F 68.0 °F 74% 30.04 in 10.0 mi ESE 3.5 mph - N/A   Mostly Cloudy
6:35 PM 75.2 °F 68.0 °F 78% 30.03 in 10.0 mi SSE 3.5 mph - N/A   Scattered Clouds
6:55 PM 75.2 °F 68.0 °F 78% 30.04 in 10.0 mi SSE 5.8 mph - N/A   Partly Cloudy
7:15 PM 75.2 °F 68.0 °F 78% 30.04 in 10.0 mi SSE 3.5 mph - N/A   Scattered Clouds
7:35 PM 73.4 °F 68.0 °F 83% 30.04 in 10.0 mi SE 3.5 mph - N/A   Scattered Clouds
7:55 PM 73.4 °F 68.0 °F 83% 30.04 in 10.0 mi SE 3.5 mph - N/A   Scattered Clouds
8:15 PM 71.6 °F 66.2 °F 83% 30.05 in 10.0 mi SSE 3.5 mph - N/A   Mostly Cloudy
8:35 PM 73.4 °F 66.2 °F 78% 30.06 in 10.0 mi SSE 4.6 mph - N/A   Mostly Cloudy
8:55 PM 73.4 °F 66.2 °F 78% 30.06 in 10.0 mi SSE 3.5 mph - N/A   Scattered Clouds
9:15 PM 73.4 °F 66.2 °F 78% 30.06 in 10.0 mi South 6.9 mph - N/A   Clear
9:35 PM 73.4 °F 66.2 °F 78% 30.06 in 10.0 mi South 5.8 mph - N/A   Clear
9:55 PM 73.4 °F 66.2 °F 78% 30.07 in 10.0 mi South 6.9 mph - N/A   Clear
10:15 PM 73.4 °F 66.2 °F 78% 30.07 in 10.0 mi South 5.8 mph - N/A   Clear
10:35 PM 71.6 °F 66.2 °F 83% 30.07 in 10.0 mi South 5.8 mph - N/A   Partly Cloudy
10:55 PM 71.6 °F 66.2 °F 83% 30.07 in 10.0 mi South 5.8 mph - N/A   Scattered Clouds
11:15 PM 71.6 °F 66.2 °F 83% 30.07 in 10.0 mi South 6.9 mph - N/A   Mostly Cloudy
11:35 PM 71.6 °F 66.2 °F 83% 30.07 in 10.0 mi South 5.8 mph - N/A   Mostly Cloudy
11:55 PM 71.6 °F 66.2 °F 83% 30.08 in 10.0 mi South 6.9 mph - N/A   Overcast